Tracking 18794 objects as of 22-September-2017
HD Live streaming from Space Station
objects crossing your sky now

NAVSTAR 33 (USA 92)

Track NAVSTAR 33 (USA 92) now!
NAVSTAR 33 (USA 92) is classified as:


NORAD ID: 22700
Int'l Code: 1993-042A
Perigee: 21,195.7 km
Apogee: 21,244.2 km
Inclination: 55.5 °
Period: 760.2 minutes
Semi major axis: 27590 km
RCS: 3.4011 m2 (large)
Launch date: June 26, 1993
Source: United States (US)
Launch site: AIR FORCE EASTERN TEST RANGE (AFETR)
PRN:
aabbcc
Your satellite tracking list
Your tracking list is empty





NASA's NSSDC Master Catalog

Two Line Element Set (TLE):
1 22700U 93042A   17264.19811259 -.00000023  00000-0  00000+0 0  9990
2 22700  55.5227 280.6005 0008786 312.6360  56.4007  1.89431710176718
Source of the keplerian elements: AFSPC